| time (UTC) | temp F | wind direction | speed MPH | gust MPH | rain 1hr in | rain 24hr in | rain mn in | humidity % | barometer mb |
| 20260506044004 | 65 | 265 | 6.0 | 12.0 | 0.00 | 0.00 | 0.00 | 73 | 1027.5 |
| 20260506043504 | 66 | 264 | 5.0 | 12.0 | 0.00 | 0.00 | 0.00 | 73 | 1027.5 |
| 20260506043004 | 66 | 261 | 5.0 | 12.0 | 0.00 | 0.00 | 0.00 | 72 | 1027.5 |
| 20260506042504 | 66 | 261 | 5.0 | 13.0 | 0.00 | 0.00 | 0.00 | 71 | 1027.5 |
| 20260506042218 | 66 | 261 | 5.0 | 13.0 | 0.00 | 0.00 | 0.00 | 70 | 1027.5 |
| 20260506041504 | 66 | 268 | 5.0 | 12.0 | 0.00 | 0.00 | 0.00 | 70 | 1027.5 |
| 20260506041004 | 67 | 269 | 6.0 | 13.0 | 0.00 | 0.00 | 0.00 | 70 | 1027.5 |
| 20260506040504 | 67 | 269 | 6.0 | 13.0 | 0.00 | 0.00 | 0.00 | 69 | 1027.5 |
| 20260506040004 | 67 | 263 | 7.0 | 14.0 | 0.00 | 0.00 | 0.00 | 68 | 1027.5 |
| 20260506035504 | 68 | 260 | 6.0 | 14.0 | 0.00 | 0.00 | 0.00 | 66 | 1027.5 |
| 20260506035217 | 69 | 260 | 6.0 | 14.0 | 0.00 | 0.00 | 0.00 | 65 | 1027.5 |
| 20260506034504 | 70 | 263 | 5.0 | 14.0 | 0.00 | 0.00 | 0.00 | 65 | 1027.5 |
| 20260506034004 | 69 | 262 | 6.0 | 13.0 | 0.00 | 0.00 | 0.00 | 65 | 1027.5 |
| 20260506033504 | 69 | 261 | 6.0 | 13.0 | 0.00 | 0.00 | 0.00 | 64 | 1027.5 |
| 20260506033217 | 69 | 266 | 6.0 | 13.0 | 0.00 | 0.00 | 0.00 | 65 | 1027.5 |
| 20260506032504 | 68 | 272 | 6.0 | 16.0 | 0.00 | 0.00 | 0.00 | 67 | 1027.5 |
| 20260506032217 | 68 | 274 | 6.0 | 16.0 | 0.00 | 0.00 | 0.00 | 67 | 1027.5 |
| 20260506031504 | 70 | 276 | 7.0 | 13.0 | 0.00 | 0.00 | 0.00 | 65 | 1027.5 |
| 20260506031004 | 69 | 272 | 6.0 | 17.0 | 0.00 | 0.00 | 0.00 | 67 | 1027.5 |
| 20260506030504 | 69 | 265 | 6.0 | 17.0 | 0.00 | 0.00 | 0.00 | 66 | 1027.4 |
| 20260506030004 | 69 | 264 | 7.0 | 15.0 | 0.00 | 0.00 | 0.00 | 66 | 1027.4 |
| 20260506025504 | 69 | 271 | 7.0 | 14.0 | 0.00 | 0.00 | 0.00 | 66 | 1027.4 |
| 20260506025004 | 69 | 274 | 5.0 | 14.0 | 0.00 | 0.00 | 0.00 | 66 | 1027.4 |
| 20260506024504 | 68 | 271 | 5.0 | 14.0 | 0.00 | 0.00 | 0.00 | 67 | 1027.4 |
| 20260506024219 | 68 | 273 | 5.0 | 13.0 | 0.00 | 0.00 | 0.00 | 68 | 1027.4 |
| 20260506023504 | 69 | 267 | 6.0 | 12.0 | 0.00 | 0.00 | 0.00 | 67 | 1027.5 |
| 20260506023004 | 68 | 263 | 5.0 | 12.0 | 0.00 | 0.00 | 0.00 | 68 | 1027.5 |
| 20260506022720 | 68 | 266 | 5.0 | 12.0 | 0.00 | 0.00 | 0.00 | 68 | 1027.5 |
| 20260506022004 | 68 | 274 | 5.0 | 11.0 | 0.00 | 0.00 | 0.00 | 69 | 1027.5 |
| 20260506021718 | 68 | 279 | 5.0 | 11.0 | 0.00 | 0.00 | 0.00 | 69 | 1027.5 |
| 20260506021004 | 67 | 279 | 7.0 | 17.0 | 0.00 | 0.00 | 0.00 | 69 | 1027.6 |
| 20260506020718 | 67 | 275 | 6.0 | 17.0 | 0.00 | 0.00 | 0.00 | 68 | 1027.6 |
| 20260506020004 | 68 | 271 | 7.0 | 18.0 | 0.00 | 0.00 | 0.00 | 68 | 1027.6 |
| 20260506015504 | 68 | 267 | 8.0 | 18.0 | 0.00 | 0.00 | 0.00 | 67 | 1027.7 |
| 20260506015004 | 68 | 267 | 8.0 | 19.0 | 0.00 | 0.00 | 0.00 | 67 | 1027.7 |
| 20260506014504 | 68 | 271 | 8.0 | 19.0 | 0.00 | 0.00 | 0.00 | 67 | 1027.7 |
| 20260506014004 | 68 | 271 | 9.0 | 18.0 | 0.00 | 0.00 | 0.00 | 68 | 1027.7 |
| 20260506013504 | 68 | 264 | 8.0 | 19.0 | 0.00 | 0.00 | 0.00 | 67 | 1027.7 |
| 20260506013004 | 68 | 261 | 7.0 | 19.0 | 0.00 | 0.00 | 0.00 | 67 | 1027.7 |
| 20260506012718 | 68 | 266 | 7.0 | 14.0 | 0.00 | 0.00 | 0.00 | 67 | 1027.7 |
| 20260506012004 | 68 | 268 | 7.0 | 14.0 | 0.00 | 0.00 | 0.00 | 67 | 1027.8 |
| 20260506011504 | 68 | 271 | 7.0 | 14.0 | 0.00 | 0.00 | 0.00 | 66 | 1027.8 |
| 20260506011004 | 69 | 266 | 7.0 | 18.0 | 0.00 | 0.00 | 0.00 | 65 | 1027.8 |
| 20260506010504 | 69 | 266 | 6.0 | 18.0 | 0.00 | 0.00 | 0.00 | 64 | 1027.9 |
| 20260506010004 | 68 | 273 | 6.0 | 13.0 | 0.00 | 0.00 | 0.00 | 67 | 1028.0 |
| 20260506005504 | 68 | 270 | 6.0 | 13.0 | 0.00 | 0.00 | 0.00 | 67 | 1028.1 |
| 20260506005004 | 68 | 267 | 6.0 | 15.0 | 0.00 | 0.00 | 0.00 | 67 | 1028.2 |
| 20260506004504 | 67 | 270 | 6.0 | 15.0 | 0.00 | 0.00 | 0.00 | 68 | 1028.2 |
| 20260506004004 | 67 | 272 | 7.0 | 17.0 | 0.00 | 0.00 | 0.00 | 69 | 1028.3 |
| 20260506003504 | 67 | 265 | 7.0 | 18.0 | 0.00 | 0.00 | 0.00 | 67 | 1028.4 |
| 20260506003004 | 68 | 268 | 6.0 | 18.0 | 0.00 | 0.00 | 0.00 | 67 | 1028.4 |
| 20260506002504 | 68 | 277 | 6.0 | 13.0 | 0.00 | 0.00 | 0.00 | 68 | 1028.5 |
| 20260506002004 | 68 | 278 | 6.0 | 14.0 | 0.00 | 0.00 | 0.00 | 67 | 1028.5 |
| 20260506001719 | 68 | 280 | 5.0 | 14.0 | 0.00 | 0.00 | 0.00 | 67 | 1028.6 |
| 20260506001005 | 68 | 274 | 4.0 | 15.0 | 0.00 | 0.00 | 0.00 | 68 | 1028.7 |
| 20260506000504 | 67 | 276 | 4.0 | 15.0 | 0.00 | 0.00 | 0.00 | 69 | 1028.7 |
| 20260506000004 | 67 | 278 | 4.0 | 11.0 | 0.00 | 0.00 | 0.00 | 69 | 1028.8 |
| 20260505235504 | 67 | 278 | 6.0 | 17.0 | 0.00 | 0.00 | 0.00 | 69 | 1028.8 |
| 20260505235218 | 67 | 277 | 6.0 | 17.0 | 0.00 | 0.00 | 0.00 | 69 | 1028.9 |
| 20260505234719 | 66 | 274 | 6.0 | 17.0 | 0.00 | 0.00 | 0.00 | 69 | 1029.0 |
| 20260505234004 | 66 | 282 | 4.0 | 14.0 | 0.00 | 0.00 | 0.00 | 69 | 1029.0 |
| 20260505233504 | 66 | 282 | 4.0 | 13.0 | 0.00 | 0.00 | 0.00 | 70 | 1029.0 |
| 20260505233004 | 66 | 275 | 4.0 | 13.0 | 0.00 | 0.00 | 0.00 | 70 | 1029.0 |
| 20260505232504 | 66 | 273 | 4.0 | 13.0 | 0.00 | 0.00 | 0.00 | 70 | 1029.0 |
| 20260505232004 | 65 | 286 | 3.0 | 11.0 | 0.00 | 0.00 | 0.00 | 71 | 1029.0 |
| 20260505231719 | 65 | 294 | 3.0 | 11.0 | 0.00 | 0.00 | 0.00 | 72 | 1029.0 |
| 20260505231004 | 65 | 285 | 3.0 | 13.0 | 0.00 | 0.00 | 0.00 | 71 | 1029.0 |
| 20260505230504 | 65 | 291 | 2.0 | 10.0 | 0.00 | 0.00 | 0.00 | 71 | 1029.1 |
| 20260505230004 | 65 | 301 | 2.0 | 10.0 | 0.00 | 0.00 | 0.00 | 71 | 1029.1 |
| 20260505225504 | 65 | 288 | 3.0 | 7.0 | 0.00 | 0.00 | 0.00 | 71 | 1029.2 |
| 20260505225004 | 64 | 290 | 3.0 | 9.0 | 0.00 | 0.00 | 0.00 | 72 | 1029.2 |
| 20260505224504 | 64 | 308 | 2.0 | 9.0 | 0.00 | 0.00 | 0.00 | 72 | 1029.2 |
| 20260505224004 | 64 | 319 | 2.0 | 6.0 | 0.00 | 0.00 | 0.00 | 73 | 1029.3 |
| 20260505223504 | 64 | 312 | 3.0 | 11.0 | 0.00 | 0.00 | 0.00 | 75 | 1029.3 |
| 20260505223004 | 63 | 308 | 3.0 | 11.0 | 0.00 | 0.00 | 0.00 | 74 | 1029.4 |
| 20260505222504 | 63 | 310 | 3.0 | 9.0 | 0.00 | 0.00 | 0.00 | 75 | 1029.4 |
| 20260505222004 | 63 | 310 | 3.0 | 9.0 | 0.00 | 0.00 | 0.00 | 75 | 1029.4 |
| 20260505221504 | 63 | 303 | 3.0 | 8.0 | 0.00 | 0.00 | 0.00 | 76 | 1029.5 |
| 20260505221004 | 63 | 300 | 3.0 | 8.0 | 0.00 | 0.00 | 0.00 | 76 | 1029.5 |
| 20260505220504 | 62 | 306 | 3.0 | 6.0 | 0.00 | 0.00 | 0.00 | 78 | 1029.6 |
| 20260505220217 | 62 | 311 | 2.0 | 6.0 | 0.00 | 0.00 | 0.00 | 78 | 1029.6 |
| 20260505215504 | 61 | 307 | 2.0 | 7.0 | 0.00 | 0.00 | 0.00 | 80 | 1029.6 |
| 20260505215217 | 61 | 306 | 2.0 | 7.0 | 0.00 | 0.00 | 0.00 | 81 | 1029.6 |
| 20260505214504 | 60 | 306 | 2.0 | 5.0 | 0.00 | 0.00 | 0.00 | 82 | 1029.7 |
| 20260505214217 | 60 | 307 | 2.0 | 5.0 | 0.00 | 0.00 | 0.00 | 82 | 1029.7 |
| 20260505213504 | 59 | 312 | 1.0 | 5.0 | 0.00 | 0.00 | 0.00 | 84 | 1029.8 |
| 20260505213004 | 59 | 309 | 1.0 | 5.0 | 0.00 | 0.00 | 0.00 | 84 | 1029.9 |
| 20260505212504 | 59 | 312 | 1.0 | 5.0 | 0.00 | 0.00 | 0.00 | 84 | 1029.9 |
| 20260505212004 | 58 | 315 | 3.0 | 5.0 | 0.00 | 0.00 | 0.00 | 84 | 1030.0 |
| 20260505211504 | 58 | 310 | 2.0 | 6.0 | 0.00 | 0.00 | 0.00 | 85 | 1030.0 |
| 20260505211005 | 57 | 303 | 1.0 | 6.0 | 0.00 | 0.00 | 0.00 | 87 | 1030.0 |
| 20260505210504 | 56 | 283 | 1.0 | 3.0 | 0.00 | 0.00 | 0.00 | 89 | 1030.0 |
| 20260505210004 | 55 | 0 | 0.0 | 2.0 | 0.00 | 0.00 | 0.00 | 90 | 1030.0 |
| 20260505205505 | 54 | 0 | 0.0 | 0.0 | 0.00 | 0.00 | 0.00 | 90 | 1030.1 |
| 20260505205004 | 54 | 0 | 0.0 | 0.0 | 0.00 | 0.00 | 0.00 | 90 | 1030.1 |
| 20260505204504 | 54 | 0 | 0.0 | 0.0 | 0.00 | 0.00 | 0.00 | 90 | 1030.0 |
| 20260505204004 | 53 | 0 | 0.0 | 0.0 | 0.00 | 0.00 | 0.00 | 90 | 1030.0 |
| 20260505203718 | 53 | 0 | 0.0 | 0.0 | 0.00 | 0.00 | 0.00 | 90 | 1030.0 |
| 20260505203003 | 53 | 0 | 0.0 | 0.0 | 0.00 | 0.00 | 0.00 | 90 | 1030.0 |
| 20260505202504 | 53 | 0 | 0.0 | 0.0 | 0.00 | 0.00 | 0.00 | 90 | 1030.0 |
| 20260505202004 | 53 | 0 | 0.0 | 0.0 | 0.00 | 0.00 | 0.00 | 90 | 1030.0 |
| 20260505201504 | 53 | 0 | 0.0 | 0.0 | 0.00 | 0.00 | 0.00 | 90 | 1030.0 |
| 20260505201004 | 52 | 0 | 0.0 | 0.0 | 0.00 | 0.00 | 0.00 | 90 | 1029.9 |
| 20260505200504 | 52 | 0 | 0.0 | 0.0 | 0.00 | 0.00 | 0.00 | 90 | 1029.9 |
| 20260505200004 | 52 | 0 | 0.0 | 0.0 | 0.00 | 0.00 | 0.00 | 90 | 1029.9 |
| 20260505195504 | 52 | 0 | 0.0 | 0.0 | 0.00 | 0.00 | 0.00 | 90 | 1029.9 |
| 20260505195004 | 52 | 0 | 0.0 | 0.0 | 0.00 | 0.00 | 0.00 | 90 | 1029.9 |
| 20260505194504 | 52 | 0 | 0.0 | 0.0 | 0.00 | 0.00 | 0.00 | 90 | 1029.9 |
| 20260505194004 | 52 | 0 | 0.0 | 0.0 | 0.00 | 0.00 | 0.00 | 90 | 1029.8 |
| 20260505193718 | 52 | 0 | 0.0 | 0.0 | 0.00 | 0.00 | 0.00 | 90 | 1029.8 |
| 20260505193004 | 51 | 0 | 0.0 | 0.0 | 0.00 | 0.00 | 0.00 | 90 | 1029.8 |
| 20260505192504 | 51 | 0 | 0.0 | 0.0 | 0.00 | 0.00 | 0.00 | 90 | 1029.7 |
| 20260505192004 | 51 | 0 | 0.0 | 0.0 | 0.00 | 0.00 | 0.00 | 90 | 1029.7 |
| 20260505191503 | 51 | 0 | 0.0 | 0.0 | 0.00 | 0.00 | 0.00 | 90 | 1029.7 |
| 20260505191004 | 51 | 0 | 0.0 | 0.0 | 0.00 | 0.00 | 0.00 | 90 | 1029.7 |
| 20260505190504 | 51 | 0 | 0.0 | 0.0 | 0.00 | 0.00 | 0.00 | 90 | 1029.7 |
| 20260505190004 | 51 | 0 | 0.0 | 0.0 | 0.00 | 0.00 | 0.00 | 90 | 1029.7 |
| 20260505185504 | 51 | 0 | 0.0 | 0.0 | 0.00 | 0.00 | 0.00 | 90 | 1029.7 |
| 20260505185004 | 51 | 0 | 0.0 | 1.0 | 0.00 | 0.00 | 0.00 | 90 | 1029.7 |
| 20260505184504 | 51 | 247 | 0.0 | 2.0 | 0.00 | 0.00 | 0.00 | 90 | 1029.7 |
| 20260505184004 | 51 | 247 | 0.0 | 2.0 | 0.00 | 0.00 | 0.00 | 90 | 1029.7 |
| 20260505183504 | 51 | 247 | 0.0 | 2.0 | 0.00 | 0.00 | 0.00 | 90 | 1029.7 |
| 20260505183004 | 50 | 0 | 0.0 | 1.0 | 0.00 | 0.00 | 0.00 | 89 | 1029.7 |
| 20260505182504 | 50 | 0 | 0.0 | 0.0 | 0.00 | 0.00 | 0.00 | 88 | 1029.7 |
| 20260505182004 | 50 | 0 | 0.0 | 0.0 | 0.00 | 0.00 | 0.00 | 88 | 1029.7 |
| 20260505181504 | 50 | 0 | 0.0 | 0.0 | 0.00 | 0.00 | 0.00 | 88 | 1029.7 |
| 20260505181220 | 50 | 0 | 0.0 | 0.0 | 0.00 | 0.00 | 0.00 | 87 | 1029.8 |
| 20260505180719 | 50 | 0 | 0.0 | 0.0 | 0.00 | 0.00 | 0.00 | 87 | 1029.8 |
| 20260505180004 | 51 | 0 | 0.0 | 0.0 | 0.00 | 0.00 | 0.00 | 87 | 1029.8 |
| 20260505175503 | 51 | 0 | 0.0 | 0.0 | 0.00 | 0.00 | 0.00 | 87 | 1029.8 |
| 20260505175004 | 51 | 0 | 0.0 | 0.0 | 0.00 | 0.00 | 0.00 | 87 | 1029.8 |
| 20260505174504 | 52 | 0 | 0.0 | 0.0 | 0.00 | 0.00 | 0.00 | 87 | 1029.8 |
| 20260505174004 | 52 | 0 | 0.0 | 0.0 | 0.00 | 0.00 | 0.00 | 87 | 1029.8 |
| 20260505173504 | 52 | 0 | 0.0 | 0.0 | 0.00 | 0.00 | 0.00 | 87 | 1029.9 |
| 20260505173218 | 52 | 0 | 0.0 | 0.0 | 0.00 | 0.00 | 0.00 | 87 | 1029.9 |
| 20260505172504 | 53 | 0 | 0.0 | 0.0 | 0.00 | 0.00 | 0.00 | 86 | 1029.9 |
| 20260505172004 | 53 | 0 | 0.0 | 0.0 | 0.00 | 0.00 | 0.00 | 86 | 1030.0 |
| 20260505171504 | 53 | 0 | 0.0 | 0.0 | 0.00 | 0.00 | 0.00 | 86 | 1030.0 |
| 20260505171004 | 53 | 247 | 0.0 | 2.0 | 0.00 | 0.00 | 0.00 | 86 | 1030.1 |
| 20260505170504 | 53 | 247 | 1.0 | 3.0 | 0.00 | 0.00 | 0.00 | 86 | 1030.1 |
| 20260505170004 | 53 | 247 | 0.0 | 3.0 | 0.00 | 0.00 | 0.00 | 86 | 1030.1 |
| 20260505165504 | 53 | 247 | 0.0 | 2.0 | 0.00 | 0.00 | 0.00 | 86 | 1030.1 |
| 20260505165004 | 53 | 247 | 0.0 | 2.0 | 0.00 | 0.00 | 0.00 | 86 | 1030.1 |
| 20260505164719 | 53 | 247 | 0.0 | 2.0 | 0.00 | 0.00 | 0.00 | 86 | 1030.1 |
| 20260505164004 | 53 | 247 | 0.0 | 2.0 | 0.00 | 0.00 | 0.00 | 86 | 1030.1 |
| 20260505163718 | 53 | 247 | 1.0 | 2.0 | 0.00 | 0.00 | 0.00 | 86 | 1030.1 |
| 20260505163217 | 53 | 251 | 1.0 | 3.0 | 0.00 | 0.00 | 0.00 | 86 | 1030.1 |
| 20260505162718 | 53 | 278 | 1.0 | 3.0 | 0.00 | 0.00 | 0.00 | 86 | 1030.1 |
| 20260505162217 | 53 | 306 | 0.0 | 4.0 | 0.00 | 0.00 | 0.00 | 87 | 1030.1 |
| 20260505161504 | 53 | 0 | 0.0 | 1.0 | 0.00 | 0.00 | 0.00 | 87 | 1030.1 |
| 20260505161004 | 53 | 0 | 0.0 | 0.0 | 0.00 | 0.00 | 0.00 | 87 | 1030.1 |
| 20260505160504 | 53 | 0 | 0.0 | 0.0 | 0.00 | 0.00 | 0.00 | 87 | 1030.1 |
| 20260505153004 | 53 | 289 | 1.0 | 4.0 | 0.00 | 0.00 | 0.00 | 88 | 1030.3 |
| 20260505152505 | 52 | 290 | 1.0 | 4.0 | 0.00 | 0.00 | 0.00 | 88 | 1030.3 |
| 20260505152004 | 52 | 294 | 0.0 | 4.0 | 0.00 | 0.00 | 0.00 | 89 | 1030.3 |
| 20260505151504 | 52 | 0 | 0.0 | 2.0 | 0.00 | 0.00 | 0.00 | 89 | 1030.3 |
| 20260505151219 | 52 | 0 | 0.0 | 1.0 | 0.00 | 0.00 | 0.00 | 89 | 1030.3 |
| 20260505150504 | 51 | 0 | 0.0 | 0.0 | 0.00 | 0.00 | 0.00 | 89 | 1030.4 |
| 20260505140504 | 51 | 0 | 0.0 | 1.0 | 0.00 | 0.00 | 0.00 | 89 | 1031.2 |
| 20260505125004 | 50 | 0 | 0.0 | 0.0 | 0.00 | 0.00 | 0.00 | 89 | 1031.8 |
| 20260505124504 | 49 | 0 | 0.0 | 0.0 | 0.00 | 0.00 | 0.00 | 89 | 1031.8 |
| 20260505124004 | 49 | 0 | 0.0 | 1.0 | 0.00 | 0.00 | 0.00 | 90 | 1031.9 |
| 20260505123719 | 49 | 0 | 0.0 | 1.0 | 0.00 | 0.00 | 0.00 | 90 | 1031.9 |
| 20260505123004 | 49 | 0 | 0.0 | 1.0 | 0.00 | 0.00 | 0.00 | 90 | 1031.9 |
| 20260505122504 | 49 | 0 | 0.0 | 1.0 | 0.00 | 0.00 | 0.00 | 90 | 1031.9 |
| 20260505122004 | 49 | 0 | 0.0 | 0.0 | 0.00 | 0.00 | 0.00 | 90 | 1032.0 |
| 20260505121719 | 49 | 0 | 0.0 | 0.0 | 0.00 | 0.00 | 0.00 | 90 | 1032.0 |
| 20260505121004 | 48 | 0 | 0.0 | 0.0 | 0.00 | 0.00 | 0.00 | 90 | 1032.0 |
| 20260505120504 | 48 | 0 | 0.0 | 0.0 | 0.00 | 0.00 | 0.00 | 90 | 1032.0 |
| 20260505120005 | 48 | 0 | 0.0 | 0.0 | 0.00 | 0.00 | 0.00 | 90 | 1032.1 |
| 20260505115719 | 48 | 0 | 0.0 | 0.0 | 0.00 | 0.00 | 0.00 | 90 | 1032.1 |
| 20260505115004 | 48 | 0 | 0.0 | 0.0 | 0.00 | 0.00 | 0.00 | 90 | 1032.1 |
| 20260505114504 | 48 | 0 | 0.0 | 1.0 | 0.00 | 0.00 | 0.00 | 90 | 1032.1 |
| 20260505114004 | 48 | 0 | 0.0 | 1.0 | 0.00 | 0.00 | 0.00 | 90 | 1032.1 |
| 20260505113719 | 48 | 0 | 0.0 | 1.0 | 0.00 | 0.00 | 0.00 | 90 | 1032.2 |
| 20260505113004 | 47 | 0 | 0.0 | 1.0 | 0.00 | 0.00 | 0.00 | 90 | 1032.2 |
| 20260505112718 | 47 | 0 | 0.0 | 1.0 | 0.00 | 0.00 | 0.00 | 90 | 1032.3 |
| 20260505112004 | 47 | 0 | 0.0 | 1.0 | 0.00 | 0.00 | 0.00 | 90 | 1032.4 |
| 20260505111504 | 46 | 0 | 0.0 | 1.0 | 0.00 | 0.00 | 0.00 | 90 | 1032.4 |
| 20260505111005 | 46 | 0 | 0.0 | 1.0 | 0.00 | 0.00 | 0.00 | 90 | 1032.5 |
| 20260505110504 | 46 | 0 | 0.0 | 0.0 | 0.00 | 0.00 | 0.00 | 90 | 1032.5 |
| 20260505102004 | 45 | 0 | 0.0 | 0.0 | 0.00 | 0.00 | 0.00 | 89 | 1032.9 |
| 20260505101504 | 45 | 0 | 0.0 | 0.0 | 0.00 | 0.00 | 0.00 | 88 | 1032.9 |
| 20260505101004 | 45 | 0 | 0.0 | 0.0 | 0.00 | 0.00 | 0.00 | 88 | 1032.9 |
| 20260505100504 | 46 | 0 | 0.0 | 0.0 | 0.00 | 0.00 | 0.00 | 88 | 1032.9 |
| 20260505100004 | 46 | 0 | 0.0 | 0.0 | 0.00 | 0.00 | 0.00 | 88 | 1032.9 |
| 20260505095504 | 46 | 0 | 0.0 | 0.0 | 0.00 | 0.00 | 0.00 | 88 | 1032.9 |
| 20260505095004 | 46 | 0 | 0.0 | 0.0 | 0.00 | 0.00 | 0.00 | 88 | 1032.9 |
| 20260505094504 | 46 | 0 | 0.0 | 0.0 | 0.00 | 0.00 | 0.00 | 88 | 1032.9 |
| 20260505094219 | 46 | 0 | 0.0 | 0.0 | 0.00 | 0.00 | 0.00 | 88 | 1032.9 |
| 20260505093504 | 46 | 0 | 0.0 | 0.0 | 0.00 | 0.00 | 0.00 | 88 | 1032.8 |
| 20260505093004 | 46 | 0 | 0.0 | 0.0 | 0.00 | 0.00 | 0.00 | 88 | 1032.8 |
| 20260505092720 | 46 | 0 | 0.0 | 0.0 | 0.00 | 0.00 | 0.00 | 88 | 1032.8 |
| 20260505092004 | 47 | 0 | 0.0 | 0.0 | 0.00 | 0.00 | 0.00 | 88 | 1032.7 |
| 20260505091717 | 47 | 0 | 0.0 | 0.0 | 0.00 | 0.00 | 0.00 | 88 | 1032.7 |
| 20260505091218 | 47 | 0 | 0.0 | 0.0 | 0.00 | 0.00 | 0.00 | 88 | 1032.7 |
| 20260505090504 | 47 | 0 | 0.0 | 0.0 | 0.00 | 0.00 | 0.00 | 87 | 1032.7 |
| 20260505090004 | 47 | 0 | 0.0 | 0.0 | 0.00 | 0.00 | 0.00 | 87 | 1032.7 |
| 20260505085504 | 47 | 0 | 0.0 | 0.0 | 0.00 | 0.00 | 0.00 | 87 | 1032.7 |
| 20260505085004 | 47 | 0 | 0.0 | 0.0 | 0.00 | 0.00 | 0.00 | 87 | 1032.7 |
| 20260505084504 | 47 | 0 | 0.0 | 0.0 | 0.00 | 0.00 | 0.00 | 86 | 1032.7 |
| 20260505084004 | 47 | 0 | 0.0 | 0.0 | 0.00 | 0.00 | 0.00 | 86 | 1032.8 |
| 20260505083504 | 48 | 0 | 0.0 | 0.0 | 0.00 | 0.00 | 0.00 | 86 | 1032.8 |
| 20260505083005 | 48 | 0 | 0.0 | 0.0 | 0.00 | 0.00 | 0.00 | 86 | 1032.8 |
| 20260505082504 | 48 | 0 | 0.0 | 0.0 | 0.00 | 0.00 | 0.00 | 86 | 1032.8 |
| 20260505082004 | 48 | 0 | 0.0 | 0.0 | 0.00 | 0.00 | 0.00 | 85 | 1032.9 |
| 20260505081504 | 48 | 0 | 0.0 | 0.0 | 0.00 | 0.00 | 0.00 | 85 | 1032.9 |
| 20260505081218 | 48 | 0 | 0.0 | 0.0 | 0.00 | 0.00 | 0.00 | 85 | 1032.9 |
| 20260505080504 | 49 | 0 | 0.0 | 0.0 | 0.00 | 0.00 | 0.00 | 84 | 1032.9 |
| 20260505080218 | 49 | 0 | 0.0 | 0.0 | 0.00 | 0.00 | 0.00 | 84 | 1032.9 |
| 20260505075504 | 49 | 0 | 0.0 | 0.0 | 0.00 | 0.00 | 0.00 | 84 | 1033.0 |
| 20260505075004 | 49 | 0 | 0.0 | 0.0 | 0.00 | 0.00 | 0.00 | 84 | 1033.0 |
| 20260505074504 | 50 | 0 | 0.0 | 0.0 | 0.00 | 0.00 | 0.00 | 83 | 1033.0 |
| 20260505074004 | 50 | 0 | 0.0 | 0.0 | 0.00 | 0.00 | 0.00 | 84 | 1033.0 |
| 20260505073504 | 50 | 0 | 0.0 | 0.0 | 0.00 | 0.00 | 0.00 | 83 | 1033.0 |
| 20260505073218 | 50 | 0 | 0.0 | 1.0 | 0.00 | 0.00 | 0.00 | 82 | 1033.0 |
| 20260505072504 | 50 | 0 | 0.0 | 1.0 | 0.00 | 0.00 | 0.00 | 81 | 1033.0 |
| 20260505072004 | 50 | 0 | 0.0 | 0.0 | 0.00 | 0.00 | 0.00 | 81 | 1033.0 |
| 20260505071504 | 51 | 0 | 0.0 | 0.0 | 0.00 | 0.00 | 0.00 | 80 | 1032.9 |
| 20260505071004 | 51 | 0 | 0.0 | 0.0 | 0.00 | 0.00 | 0.00 | 80 | 1032.9 |
| 20260505070719 | 51 | 0 | 0.0 | 0.0 | 0.00 | 0.00 | 0.00 | 79 | 1032.9 |
| 20260505070004 | 52 | 0 | 0.0 | 0.0 | 0.00 | 0.00 | 0.00 | 78 | 1032.9 |
| 20260505065504 | 52 | 0 | 0.0 | 0.0 | 0.00 | 0.00 | 0.00 | 78 | 1032.9 |
| 20260505065004 | 52 | 0 | 0.0 | 0.0 | 0.00 | 0.00 | 0.00 | 77 | 1032.8 |
| 20260505064504 | 52 | 0 | 0.0 | 0.0 | 0.00 | 0.00 | 0.00 | 77 | 1032.8 |
| 20260505064004 | 53 | 0 | 0.0 | 0.0 | 0.00 | 0.00 | 0.00 | 76 | 1032.8 |
| 20260505063719 | 53 | 0 | 0.0 | 0.0 | 0.00 | 0.00 | 0.00 | 76 | 1032.9 |
| 20260505063218 | 53 | 0 | 0.0 | 0.0 | 0.00 | 0.00 | 0.00 | 76 | 1032.9 |
| 20260505062718 | 53 | 0 | 0.0 | 1.0 | 0.00 | 0.00 | 0.00 | 75 | 1032.9 |
| 20260505062004 | 54 | 0 | 0.0 | 1.0 | 0.00 | 0.00 | 0.00 | 75 | 1032.9 |
| 20260505061504 | 54 | 0 | 0.0 | 0.0 | 0.00 | 0.00 | 0.00 | 75 | 1032.9 |
| 20260505061217 | 54 | 0 | 0.0 | 0.0 | 0.00 | 0.00 | 0.00 | 75 | 1032.9 |
| 20260505060504 | 55 | 0 | 0.0 | 1.0 | 0.00 | 0.00 | 0.00 | 74 | 1032.8 |
| 20260505060004 | 55 | 257 | 0.0 | 3.0 | 0.00 | 0.00 | 0.00 | 74 | 1032.8 |
| 20260505055504 | 56 | 266 | 1.0 | 3.0 | 0.00 | 0.00 | 0.00 | 74 | 1032.8 |
| 20260505055004 | 56 | 259 | 1.0 | 3.0 | 0.00 | 0.00 | 0.00 | 74 | 1032.8 |
| 20260505054505 | 56 | 250 | 1.0 | 3.0 | 0.00 | 0.00 | 0.00 | 74 | 1032.8 |
| 20260505054005 | 56 | 257 | 1.0 | 4.0 | 0.00 | 0.00 | 0.00 | 74 | 1032.8 |
| 20260505053504 | 56 | 258 | 1.0 | 4.0 | 0.00 | 0.00 | 0.00 | 73 | 1032.8 |
| 20260505053004 | 57 | 254 | 1.0 | 4.0 | 0.00 | 0.00 | 0.00 | 73 | 1032.8 |
| 20260505052718 | 57 | 257 | 1.0 | 4.0 | 0.00 | 0.00 | 0.00 | 73 | 1032.8 |
| 20260505052004 | 58 | 257 | 2.0 | 5.0 | 0.00 | 0.00 | 0.00 | 72 | 1032.8 |
| 20260505051718 | 58 | 258 | 2.0 | 5.0 | 0.00 | 0.00 | 0.00 | 71 | 1032.8 |
| 20260505051004 | 58 | 257 | 2.0 | 5.0 | 0.00 | 0.00 | 0.00 | 71 | 1032.8 |
| 20260505050504 | 58 | 261 | 1.0 | 5.0 | 0.00 | 0.00 | 0.00 | 70 | 1032.8 |